Regional Weather Roundup
Issued by NWS

Home | Current Version | Previous Version | Graphics & Text | Print | Product List | Glossary On
Versions: 1 2 3 4 5 6 7 8 9 10 11 12 13 14 15 16 17 18 19 20 21 22 23 24 25 26 27 28 29 30 31 32 33 34 35 36 37 38 39 40 41 42 43 44 45 46 47 48 49 50
179
ASUS43 KOAX 290410
RWRNE

WEATHER ROUNDUP FOR NEBRASKA
NATIONAL WEATHER SERVICE OMAHA NE
1100 PM CDT FRI APR 28 2017

NOTES: SATELLITE DATA IS BEING USED TO AUGMENT CLOUD COVER ABOVE
       12000 FEET.
       "FAIR" INDICATES FEW OR NO CLOUDS BELOW 12,000 FEET WITH NO
       SIGNIFICANT WEATHER AND/OR OBSTRUCTIONS TO VISIBILITY.

  * THESE STATIONS DO NOT REPORT WEATHER SUCH AS RAIN...SNOW OR FOG.

NEZ001>004-019>022-054>056-290500-
NEBRASKA PANHANDLE

CITY           SKY/WX    TMP DP  RH WIND       PRES   REMARKS
SCOTTSBLUFF    CLOUDY    34  32  92 W3        30.15R
ALLIANCE       CLOUDY    34  31  88 NW5       30.13R WCI  30
CHADRON        CLOUDY    38  30  73 NE5       30.17R WCI  34
KIMBALL        MIX PCPN  32  31  96 NE9       30.11R WCI  24
SIDNEY         FRZ RAIN  33  31  92 N14       30.10S FOG     WCI  23
$$

NEZ057>060-069>072-079>082-290500-
SOUTHWEST NEBRASKA

CITY           SKY/WX    TMP DP  RH WIND       PRES   REMARKS
NORTH PLATTE   CLOUDY    38  35  89 N5        30.11R WCI  34
IMPERIAL       CLOUDY    36  33  89 NE15      30.08R WCI  27
LEXINGTON      CLOUDY    38  33  81 N8        30.09R WCI  32
MCCOOK         CLOUDY    37  34  89 NE12      30.07R WCI  29
OGALLALA       CLOUDY    38  33  82 N12       30.11R WCI  30
$$

NEZ005>010-023>029-035>040-094-290500-
NORTH CENTRAL NEBRASKA

CITY           SKY/WX    TMP DP  RH WIND       PRES   REMARKS
VALENTINE      CLOUDY    45  26  47 N6        30.15R
AINSWORTH      CLOUDY    41  31  67 NE3       30.14R
BROKEN BOW     CLOUDY    39  36  89 N6        30.10R WCI  35
O`NEILL        CLOUDY    42  30  63 N5        30.11R
ORD            CLOUDY    41  33  73 N3        30.11R
THEDFORD       CLOUDY    40  32  71 CALM      30.14R
$$

NEZ041-046>049-061>064-073>077-083>087-290500-
SOUTH CENTRAL NEBRASKA

CITY           SKY/WX    TMP DP  RH WIND       PRES   REMARKS
GRAND ISLAND   CLOUDY    39  38  96 NE8       30.09R WCI  33
AURORA         CLOUDY    40  38  95 NE9       30.08R WCI  33
HASTINGS       CLOUDY    39  36  89 NE15      30.07S WCI  31
HEBRON         CLOUDY    40  38  91 NE10      30.04S WCI  34
HOLDREGE       CLOUDY    37  35  92 N15       30.06F FOG     WCI  28
KEARNEY *      CLOUDY    37  34  87 N10       30.08R WCI  30
YORK           CLOUDY    39  39 100 NE13      30.08R WCI  32
$$

NEZ011>018-030>034-042>045-290500-
NORTHEAST NEBRASKA

CITY           SKY/WX    TMP DP  RH WIND       PRES   REMARKS
NORFOLK        CLOUDY    43  33  68 NE9       30.09R
ALBION         CLOUDY    42  34  73 N5        30.11R
BLAIR          CLOUDY    42  39  90 N9        30.05R
FREMONT        CLOUDY    42  40  93 CALM      30.08R
TEKAMAH        CLOUDY    44  38  79 N7        30.08R
WAYNE          CLOUDY    42  37  83 N3        30.09R
$$

NEZ050>053-065>068-078-088>093-290500-
SOUTHEAST NEBRASKA

CITY           SKY/WX    TMP DP  RH WIND       PRES   REMARKS
LINCOLN        CLOUDY    42  38  85 NE12      30.08R
OMAHA EPPLEY   CLOUDY    43  38  82 N10       30.05R
BEATRICE       CLOUDY    42  40  93 NE10      30.05R
FALLS CITY     CLOUDY    44  42  93 N8        30.00R
NEBRASKA CITY  CLOUDY    42  42 100 NE10      30.04R
PLATTSMOUTH    CLOUDY    42  37  84 N8        30.04R
$$

NEZ044-045-051>053-067-290500-
OMAHA AREA

CITY           SKY/WX    TMP DP  RH WIND       PRES   REMARKS
OMAHA EPPLEY   CLOUDY    43  38  82 N10       30.05R
BLAIR          CLOUDY    42  39  90 N9        30.05R
FREMONT        CLOUDY    42  40  93 CALM      30.08R
MILLARD        CLOUDY    44  40  86 N5        30.06R
OFFUTT AFB     CLOUDY    43  38  82 N7        30.04R
PLATTSMOUTH    CLOUDY    42  37  84 N8        30.04R
WAHOO          CLOUDY    42  39  91 N6        30.07R
$$




USA.gov is the U.S. government's official web portal to all federal, state and local government web resources and services.